{"data":{"norad_id":43911,"epoch":"2026-09-20T04:28:34.801824Z","epoch_age_seconds":85489,"freshness":"FRESH","line1":"1 43911U 18112C   26263.18651391 -.00000077  00000+0  33164-4 0  9999","line2":"2 43911  50.0125 304.1973 0000531 140.8547 219.2407 14.29028964405377","mean_motion":14.29028964,"eccentricity":5.31e-5,"inclination_deg":50.0125,"raan_deg":304.1973,"arg_perigee_deg":140.8547,"mean_anomaly_deg":219.2407,"bstar":3.3164e-5,"rev_number":40537,"period_min":100.76772663651,"perigee_km":794.59755222976,"apogee_km":795.35933708999,"semimajor_km":7173.1154446599,"source":"CELESTRAK","updated_at":"2026-09-20T09:00:14.417925Z"}}